Regional Weather Roundup
Issued by NWS

Home | Current Version | Previous Version | Text Only | Print | Product List | Glossary Off
Versions: 1 2 3 4 5 6 7 8 9 10 11 12 13 14 15 16 17 18 19 20 21 22 23 24 25 26 27 28 29 30 31 32 33 34 35 36 37 38 39 40 41 42 43 44 45 46 47 48 49 50

000
ASUS43 KMPX 251610
RWRMN
WEATHER ROUNDUP FOR MINNESOTA
NATIONAL WEATHER SERVICE TWIN CITIES/CHANHASSEN MN
1100 AM CDT MON JUL 25 2016


NOTE: "FAIR" INDICATES FEW OR NO CLOUDS BELOW 12,000 FEET WITH NO
SIGNIFICANT WEATHER AND/OR OBSTRUCTIONS TO VISIBILITY. N/A MEANS
CURRENT SKY AND/OR WEATHER CONDITIONS ARE NOT AVAILABLE.

MNZ060>063-068>070-251700-
   Twin Cities Metro

CITY           SKY/WX    TMP DP  RH WIND       PRES   REMARKS
TWIN CITIES    SUNNY     81  61  50 NW8       30.07F
ST PAUL        SUNNY     79  60  52 NW8       30.07S
CRYSTAL        SUNNY     80  59  48 NW7       30.06S
BLAINE         SUNNY     81  63  54 NW7       30.07S
LAKEVILLE      SUNNY     77  63  61 W5        30.08S
EDEN PRAIRIE   SUNNY     81  60  48 NW8       30.07S
LAKEVILLE      SUNNY     77  63  61 W5        30.08S
SOUTH ST PAUL  SUNNY     79  59  49 W8        30.07S
LAKE ELMO      FAIR      77  63  61 NW6       30.08S
$$
MNZ001>005-007-008-013>017-022>024-027-028-251700-
   Northwest Minnesota

CITY           SKY/WX    TMP DP  RH WIND       PRES   REMARKS
BEMIDJI        SUNNY     75  61  60 W7        30.05S
HALLOCK        SUNNY     75  63  64 SW3       29.99S
ROSEAU         SUNNY     75  66  73 W8        30.00S
WARROAD        SUNNY     73  66  78 SW6       30.00S
THIEF RVR FALL SUNNY     74  63  68 SW6       30.04S
CROOKSTON      SUNNY     75  63  64 SW5       30.03S
FOSSTON        SUNNY     73  63  68 SW8       30.06S
DETROIT LAKES  SUNNY     77  59  53 W5        30.08F
MOORHEAD       SUNNY     77  61  57 S6        30.05F
PARK RAPIDS    SUNNY     78  57  48 W10       30.07S
MAHNOMEN       FAIR      75  62  63 SW7       30.06S
$$
MNZ006-009>011-018-025>026-251700-
   North Central Minnesota

CITY           SKY/WX    TMP DP  RH WIND       PRES   REMARKS
BAUDETTE       SUNNY     77  62  59 VRB6      30.00S
FLAG ISLAND    MOSUNNY   75  59  57 W10       29.97S
INTL FALLS     MOSUNNY   75  61  61 W9        30.00S
WASKISH        SUNNY     75  63  64 W8        30.02S
BIG FORK       SUNNY     75  57  53 W5        30.04S
LONGVILLE      SUNNY     75  61  60 W5        30.06R
GRAND RAPIDS   SUNNY     75  60  59 W8        30.07R
ORR            MOSUNNY   73  57  56 NW7       30.00S
COOK           MOSUNNY   73  61  64 W7        30.03S
WALKER         FAIR      74  61  62 CALM      30.05S
$$
MNZ012-019>021-037-251700-
   Northeast Minnesota

CITY           SKY/WX    TMP DP  RH WIND       PRES   REMARKS
DULUTH         MOSUNNY   75  61  61 W12       30.04S
ELY            MOSUNNY   72  57  60 W10G18    30.01R
HIBBING        SUNNY     73  60  63 W8        30.03S
EVELETH        MOSUNNY   73  58  59 W10       30.04S
DULUTH HARBOR  MOSUNNY   77  63  61 W13       30.02S
TWO HARBORS    MOSUNNY   79  64  61 W6        30.00S
SILVER BAY     SUNNY     79  61  53 W6        29.98S
GRAND MARAIS     N/A     63  52  67 S14       29.93F
G MARAIS ARPRT MOSUNNY   72  54  53 W10G20    29.99S
$$
MNZ029>031-032-039>041-046>048-054>057-064-251700-
   West Central Minnesota

CITY           SKY/WX    TMP DP  RH WIND       PRES   REMARKS
FERGUS FALLS   SUNNY     75  63  64 SW3       30.08S
WHEATON        SUNNY     82  64  54 S3        30.08S
MORRIS         SUNNY     81  63  54 W5        30.08S
ALEXANDRIA     SUNNY     79  57  46 W8        30.10S
ELBOW LAKE     FAIR      76  64  66 SW5       30.08F
WADENA         SUNNY     75  61  60 W6        30.07F
GLENWOOD       SUNNY     79  63  57 CALM      30.10S
APPLETON       SUNNY     79  61  53 W3        30.08S
BENSON         SUNNY     79  57  47 W6        30.09R
ORTONVILLE     SUNNY     81  61  50 S6        30.08S
MADISON        SUNNY     79  61  53 SW3       30.09S
WILLMAR        FAIR      79  63  57 SW3       30.10S
$$
MNZ033>034-036-042>043-049>051-058-059-251700-
   Central Minnesota

CITY           SKY/WX    TMP DP  RH WIND       PRES   REMARKS
ST CLOUD       SUNNY     78  62  57 NW7       30.07F
SAUK CENTRE    FAIR      77  59  55 NW3       30.09S
PAYNESVILLE    SUNNY     78  60  53 NW3       30.09F
AITKIN         SUNNY     79  61  53 SW3       30.05S
PINE RIVER     SUNNY     75  63  64 SW3       30.09F
BRAINERD       SUNNY     76  61  59 NW7       30.07S
STAPLES        SUNNY     79  57  47 W6        30.07F
LONG PRAIRIE   FAIR      75  61  60 W3        30.09S
LITTLE FALLS   SUNNY     75  59  57 W5        30.08S
LITCHFIELD     SUNNY     79  61  53 CALM      30.09F
BUFFALO        SUNNY     78  59  52 W8        30.09S
MAPLE LAKE     SUNNY     78  64  61 CALM      30.09S
HUTCHINSON     SUNNY     78  64  62 CALM      30.10F
$$
MNZ037-044-045-052-053-251700-
   East Central Minnesota

CITY           SKY/WX    TMP DP  RH WIND       PRES   REMARKS
PRINCETON      SUNNY     81  63  54 NW6       30.07S
MORA           SUNNY     75  61  60 NW6       30.08S
CAMBRIDGE      SUNNY     81  63  54 W9        30.05S
RUSH CITY      SUNNY     77  65  65 W3        30.06F
MOOSE LAKE     SUNNY     77  63  61 W8        30.04S
HINCKLEY       FAIR      77  64  65 W7        30.06S
CLOQUET        MOSUNNY   75  57  53 W9        30.05R
MCGREGOR       MOSUNNY   77  63  61 W7        30.06S
$$
MNZ071>073-080-081-089-090-097-098-251700-
   Southwest Minnesota

CITY           SKY/WX    TMP DP  RH WIND       PRES   REMARKS
MONTEVIDEO     SUNNY     81  70  69 SW3       30.11S
GRANITE FALLS  SUNNY     79  66  64 CALM      30.11S
CANBY          SUNNY     82  61  49 SW7       30.11F
MARSHALL       SUNNY     80  63  55 S3        30.11S
REDWOOD FALLS  SUNNY     79  59  50 CALM      30.09F
OLIVIA         SUNNY     77  59  53 CALM      30.09S
PIPESTONE      SUNNY     77  63  61 W7        30.14S
WINDOM         SUNNY     79  61  53 CALM      30.12S
WORTHINGTON    SUNNY     79  61  53 CALM      30.14S
JACKSON        SUNNY     77  59  53 CALM      30.14S
TRACY          SUNNY     79  64  61 S3        30.12F
SLAYTON        SUNNY     79  63  58 S5        30.14S
$$
MNZ065>067-074>077-082>085-091>093-251700-
   South Central Minnesota

CITY           SKY/WX    TMP DP  RH WIND       PRES   REMARKS
MANKATO        SUNNY     75  63  64 CALM      30.09F
NEW ULM        SUNNY     77  59  53 CALM      30.09F
ST JAMES       SUNNY     73  57  56 CALM      30.11S
FAIRMONT       SUNNY     79  61  53 NW5       30.10
GLENCOE        SUNNY     79  66  64 W5        30.09S
FARIBAULT      SUNNY     79  64  61 CALM      30.09F
OWATONNA       SUNNY     77  61  57 NW3       30.09F
WASECA         SUNNY     75  64  69 N5        30.11S
ALBERT LEA     SUNNY     77  63  61 W7        30.10S
$$
MNZ078>079-086>088-094>096-251700-
   Southeast Minnesota

CITY           SKY/WX    TMP DP  RH WIND       PRES   REMARKS
ROCHESTER      SUNNY     78  64  61 VRB7      30.10S
RED WING       SUNNY     81  63  54 W7        30.06S
STANTON        SUNNY     77  63  61 NW6       30.07F
DODGE CENTER   SUNNY     79  61  53 N7        30.10S
WINONA         SUNNY     79  64  61 N3        30.06S
AUSTIN         SUNNY     77  63  61 W8        30.09F
PRESTON        SUNNY     76  60  58 NW7       30.10S
$$
ABBREVIATIONS USED IN REMARKS
   TC - TEMPERATURES IN CELSIUS
  WCI - WIND CHILL INDEX
   HX - HEAT INDEX
  VSB - VISIBILITY
$$



USA.gov is the U.S. government's official web portal to all federal, state and local government web resources and services.